{"data":{"norad_id":67051,"epoch":"2026-09-20T08:59:09.162240Z","epoch_age_seconds":93281,"freshness":"FRESH","line1":"1 67051U 25294X   26263.37441160  .00009907  00000+0  36897-3 0  9996","line2":"2 67051  42.9999  18.5984 0000862 247.3348 112.7412 15.27586348 44572","mean_motion":15.27586348,"eccentricity":8.62e-5,"inclination_deg":42.9999,"raan_deg":18.5984,"arg_perigee_deg":247.3348,"mean_anomaly_deg":112.7412,"bstar":0.00036897,"rev_number":4457,"period_min":94.266356981085,"perigee_km":482.43865530682,"apogee_km":483.62152051277,"semimajor_km":6861.1670879098,"source":"CELESTRAK","updated_at":"2026-09-21T09:00:36.095428Z"}}